Weather History for Tampa Macdill AFB, FL

Change the Weather History Date:

Wednesday, October 5, 2011

  Actual Average Record
Temperature  
Mean Temperature 74 °F -  
Max Temperature 86 °F 84 °F 93 °F (2001)
Min Temperature 63 °F 69 °F 59 °F (2010)
Cooling Degree Days 10    
Growing Degree Days 24 (Base 50)    
Moisture  
Dew Point 64 °F    
Average Humidity 71    
Maximum Humidity 93    
Minimum Humidity 48    
Precipitation  
Precipitation 0.00 in - - ()
Sea Level Pressure  
Sea Level Pressure 30.09 in    
Wind  
Wind Speed 10 mph (NE)    
Max Wind Speed 16 mph    
Max Gust Speed 18 mph    
Visibility 10 miles    
Events      
Averages and records for this station are not official NWS values.
T = Trace of Precipitation, MM = Missing Value Source: NWS Daily Summary

Daily Weather History Graph

Daily Weather History Graph

Search for Another Location

Airport:

Trip Planner

Search our weather history database for the weather conditions in past years. The results will help you decide how hot, cold, wet, or windy it might be!

Date:

Astronomy

Oct. 05, 2011 Rise Set
Actual Time 7:24 AM EDT 7:11 PM EDT
Civil Twilight 7:01 AM EDT 7:35 PM EDT
Nautical Twilight 6:34 AM EDT 8:02 PM EDT
Astronomical Twilight 6:07 AM EDT 8:29 PM EDT
Moon 3:24 PM EDT (10/5) 1:40 AM EDT (10/5)
Length of Visible Light 12h 33m
Length of Day
11h 47m
Waxing Gibbous, 66% of the Moon is Illuminated
Oct 5
Waxing Gibbous
Oct 11
Full
Oct 19
Last Quarter
Oct 26
New
Nov 2
First Quarter

Hourly Weather History & Observations

Time (EDT) Temp. Heat Index Dew Point Humidity Pressure Visibility Wind Dir Wind Speed Gust Speed Precip Events Conditions
12:55 AM 68.9 °F - 61.9 °F 78% 30.13 in 10.0 mi NNE 9.2 mph - N/A   Clear
1:55 AM 67.5 °F - 62.2 °F 83% 30.12 in 10.0 mi NE 8.1 mph - N/A   Clear
2:55 AM 66.0 °F - 61.5 °F 85% 30.10 in 10.0 mi NE 8.1 mph - N/A   Clear
3:55 AM 65.5 °F - 61.5 °F 87% 30.09 in 10.0 mi NE 8.1 mph - N/A   Clear
4:55 AM 64.2 °F - 60.6 °F 88% 30.10 in 10.0 mi NE 8.1 mph - N/A   Clear
5:55 AM 63.7 °F - 61.0 °F 91% 30.10 in 10.0 mi NE 6.9 mph - N/A   Partly Cloudy
6:55 AM 63.1 °F - 60.4 °F 91% 30.12 in 10.0 mi NE 6.9 mph - N/A   Clear
7:55 AM 63.9 °F - 61.9 °F 93% 30.13 in 10.0 mi NE 6.9 mph - N/A   Clear
8:55 AM 70.5 °F - 67.3 °F 89% 30.14 in 10.0 mi NNE 11.5 mph - N/A   Clear
9:55 AM 75.9 °F - 65.8 °F 71% 30.14 in 10.0 mi NNE 9.2 mph - N/A   Clear
10:55 AM 79.9 °F - 66.7 °F 64% 30.14 in 10.0 mi NE 12.7 mph - N/A   Clear
11:55 AM 82.8 °F 84.7 °F 65.8 °F 56% 30.13 in 10.0 mi NE 11.5 mph - N/A   Clear
12:55 PM 83.8 °F 86.5 °F 66.9 °F 57% 30.11 in 10.0 mi NNE 13.8 mph - N/A   Partly Cloudy
1:55 PM 85.3 °F 87.9 °F 66.7 °F 54% 30.08 in 10.0 mi ENE 12.7 mph - N/A   Partly Cloudy
2:55 PM 86.4 °F 89.0 °F 67.1 °F 52% 30.06 in 10.0 mi NE 12.7 mph 18.4 mph N/A   Clear
3:55 PM 84.7 °F 86.6 °F 65.5 °F 52% 30.05 in 10.0 mi ENE 15.0 mph - N/A   Partly Cloudy
4:55 PM 86.2 °F 87.6 °F 64.6 °F 48% 30.04 in 10.0 mi NE 16.1 mph - N/A   Partly Cloudy
5:55 PM 81.9 °F 82.5 °F 61.0 °F 49% 30.04 in 10.0 mi NE 16.1 mph - N/A   Partly Cloudy
6:55 PM 80.6 °F 81.7 °F 62.2 °F 53% 30.04 in 10.0 mi ENE 9.2 mph - N/A   Clear
7:55 PM 75.7 °F - 62.2 °F 63% 30.06 in 10.0 mi ENE 8.1 mph - N/A   Clear
8:55 PM 75.7 °F - 62.1 °F 62% 30.07 in 10.0 mi ENE 8.1 mph - N/A   Clear
9:55 PM 73.8 °F - 64.4 °F 72% 30.09 in 10.0 mi NE 16.1 mph - N/A   Clear
10:55 PM 72.7 °F - 65.5 °F 78% 30.10 in 10.0 mi NE 16.1 mph - N/A   Clear
11:55 PM 71.1 °F - 65.1 °F 81% 30.09 in 10.0 mi NE 13.8 mph - N/A   Clear